Pascagoula, MS

6:22 PM CDT on May 26, 2017 (GMT -0500)
Lott International

Weather History for KPQL - October, 2013

Change the Weather History Date:

Saturday, October 19, 2013

  Actual Average Record
Temperature  
Mean Temperature 64 °F -  
Max Temperature 68 °F 78 °F 91 °F (1963)
Min Temperature 57 °F 56 °F 39 °F (1948)
Degree Days  
Heating Degree Days 2    
Growing Degree Days 14 (Base 50)    
Moisture  
Dew Point 61 °F    
Average Humidity 90    
Maximum Humidity 100    
Minimum Humidity 75    
Precipitation  
Precipitation 0.41 in - - ()
Sea Level Pressure  
Sea Level Pressure 29.98 in    
Wind  
Wind Speed 3 mph (North)    
Max Wind Speed 10 mph    
Max Gust Speed -    
Visibility 8 miles    
Events Rain    
Averages and records for this station are not official NWS values.
T = Trace of Precipitation, MM = Missing Value Source: NWS Daily Summary

Daily Weather History Graph

Daily Weather History Graph

Search for Another Location

Airport or City:

Trip Planner

Search our weather history database for the weather conditions in past years. The results will help you decide how hot, cold, wet, or windy it might be!

Date:

Astronomy

Oct. 19, 2013 Rise Set
Actual Time 6:59 AM CDT 6:18 PM CDT
Civil Twilight 6:34 AM CDT 6:42 PM CDT
Nautical Twilight 6:06 AM CDT 7:10 PM CDT
Astronomical Twilight 5:38 AM CDT 7:38 PM CDT
Moon 6:51 PM CDT (10/19) 7:32 AM CDT (10/19)
Length of Visible Light 12h 07m
Length of Day
11h 19m
Waxing Gibbous, 99% of the Moon is Illuminated
Oct 19
Waxing Gibbous
Oct 26
Last Quarter
Nov 3
New
Nov 9
First Quarter
Nov 17
Full

Hourly Weather History & Observations

Time (CDT) Temp. Dew Point Humidity Pressure Visibility Wind Dir Wind Speed Gust Speed Precip Events Conditions
12:53 AM 64.0 °F 59.0 °F 84% 29.97 in 10.0 mi Calm Calm - N/A   Clear
1:53 AM 64.0 °F 59.0 °F 84% 29.95 in 10.0 mi NE 3.5 mph - N/A   Partly Cloudy
2:53 AM 64.0 °F 59.0 °F 84% 29.95 in 10.0 mi Calm Calm - N/A   Mostly Cloudy
3:53 AM 63.0 °F 60.1 °F 90% 29.94 in 10.0 mi Calm Calm - 0.00 in   Mostly Cloudy
4:53 AM 63.0 °F 60.1 °F 90% 29.93 in 10.0 mi East 4.6 mph - N/A   Overcast
5:53 AM 63.0 °F 60.1 °F 90% 29.94 in 10.0 mi Calm Calm - N/A   Overcast
6:53 AM 63.0 °F 60.1 °F 90% 29.95 in 10.0 mi North 5.8 mph - N/A   Overcast
7:53 AM 63.0 °F 59.0 °F 87% 29.99 in 10.0 mi North 10.4 mph - N/A   Overcast
8:53 AM 62.1 °F 60.1 °F 93% 30.02 in 2.0 mi North 3.5 mph - 0.07 in Rain Heavy Rain
9:18 AM 62.6 °F 60.8 °F 94% 30.02 in 5.0 mi North 4.6 mph - 0.07 in Rain Rain
9:44 AM 62.6 °F 60.8 °F 94% 30.02 in 1.8 mi NE 5.8 mph - 0.17 in Rain Heavy Rain
9:53 AM 62.1 °F 61.0 °F 96% 30.02 in 2.5 mi NNE 6.9 mph - 0.20 in Rain Rain
10:08 AM 62.6 °F 60.8 °F 94% 30.01 in 1.8 mi NNE 6.9 mph - 0.08 in Rain Rain
10:16 AM 62.6 °F 60.8 °F 94% 30.01 in 3.0 mi NNE 4.6 mph - 0.10 in Rain Rain
10:53 AM 63.0 °F 61.0 °F 93% 30.00 in 7.0 mi North 8.1 mph - 0.14 in Rain Rain
11:00 AM 62.6 °F 62.6 °F 100% 30.00 in 8.0 mi North 6.9 mph - 0.00 in Rain Rain
11:53 AM 64.0 °F 62.1 °F 93% 29.99 in 5.0 mi NE 3.5 mph - 0.00 in   Overcast
12:17 PM 64.4 °F 62.6 °F 94% 29.97 in 10.0 mi NNE 3.5 mph - 0.00 in Rain Light Rain
12:38 PM 64.4 °F 62.6 °F 94% 29.98 in 10.0 mi Calm Calm - 0.00 in Rain Light Rain
12:53 PM 64.9 °F 63.0 °F 93% 29.98 in 10.0 mi NW 3.5 mph - 0.00 in Rain Light Rain
1:53 PM 66.0 °F 63.0 °F 90% 29.96 in 7.0 mi NNW 8.1 mph - 0.00 in   Overcast
2:53 PM 66.9 °F 63.0 °F 87% 29.96 in 10.0 mi North 4.6 mph - N/A   Overcast
3:20 PM 66.2 °F 62.6 °F 88% 29.95 in 10.0 mi North 5.8 mph - N/A   Overcast
3:42 PM 68.0 °F 62.6 °F 83% 29.95 in 10.0 mi NNW 6.9 mph - N/A   Overcast
3:53 PM 68.0 °F 64.0 °F 87% 29.96 in 10.0 mi North 5.8 mph - N/A   Overcast
4:01 PM 68.0 °F 62.6 °F 83% 29.95 in 10.0 mi North 8.1 mph - N/A   Overcast
4:53 PM 68.0 °F 63.0 °F 84% 29.96 in 10.0 mi North 8.1 mph - N/A   Overcast
5:53 PM 68.0 °F 61.0 °F 78% 29.96 in 10.0 mi North 9.2 mph - N/A   Overcast
6:53 PM 66.0 °F 57.9 °F 75% 29.98 in 10.0 mi North 6.9 mph - N/A   Overcast
7:53 PM 64.9 °F 59.0 °F 81% 29.99 in 10.0 mi Calm Calm - N/A   Overcast
8:53 PM 63.0 °F 60.1 °F 90% 30.01 in 10.0 mi Calm Calm - N/A   Overcast
9:53 PM 61.0 °F 60.1 °F 97% 30.01 in 10.0 mi Calm Calm - N/A   Overcast
10:53 PM 59.0 °F 57.9 °F 96% 30.02 in 9.0 mi Calm Calm - N/A   Clear
11:53 PM 57.0 °F 55.9 °F 96% 30.01 in 6.0 mi Calm Calm - N/A   Clear